CZ-6A DEB

Satellite information

Favourite Embed

Satellite Type and Status

DEBRISIN ORBIT

Key statistics

Satellite CZ-6A DEB at a glance.

Uptime

436

Days in orbit

Revolutions

≈ 14.1

Per day

Orbit

LEO

Low Earth Orbit

Inclination

89.0

Latest

Satellite identification and parameters

Extended collection of information and parameters for CZ-6A DEB.

Object identification

Identified? True

Debris? True

Object name: CZ-6A DEB

International designator: 2024-140XJ

Object number (NORAD): 61393

Object ID (CCSDS): 61393

Country: PEOPLES REPUBLIC OF CHINA (PRC)

Current information (Y/N): Y

RCS size: SMALL

Orbital parameters

Period: 101.89 minutes

Inclination: 88.9967 deg

SMA: 7226.265 km

Apoapsis: 909.347 km

Periapsis: 786.914 km

RAAN: 302.7774 deg

Eccentricy: 0.00847141

Argument of periapsis: 289.3945 deg

Mean anomaly: 69.8099 deg

Mean motion: 14.13292016 rev/day

Mean motion (dot): 0.00003741 rev/day2

B* drag term: 0.0019228963 1/REarth

Two-line elements (TLE)

Creation date: Oct. 16, 2025, 2:37 a.m.

Reference frame: TEME

Reference center: EARTH

Epoch: Oct. 15, 2025, 11:27 p.m. UTC

TLE line 0: 0 CZ-6A DEB

TLE line 1: 1 61393U 24140XJ 25288.97767438 .00003741 00000-0 19229-2 0 9999

TLE line 2: 2 61393 88.9967 302.7774 0084714 289.3945 69.8099 14.13292016 57209

Live tracking on map

Real-time ground track for satellite CZ-6A DEB.

In-orbit conjunctions

A list of the most updated potential collisions computed for object CZ-6A DEB.

Target Orbit TCA Probability of collision Miss distance Type
ORBCOMM FM 5 DEB LEO 2025-05-21 21:24:47 0.000111827 47.0 (m) DEBRIS
COSMOS 1275 DEB LEO 2025-01-17 21:23:23 0.0001042627 801.0 (m) DEBRIS
CZ-6A DEB LEO 2025-01-15 14:52:49 0.0001718595 577.0 (m) DEBRIS
COSMOS 1275 DEB LEO 2024-10-05 08:27:20 0.0002649192 367.0 (m) DEBRIS

Associated space launch

18 Low Earth Orbit communication satellites with Ku, Q and V band payloads for the G60 constellation operated by Shanghai Spacecom Satellite Technology (SSST) with funding backed by the Shanghai local government. Initial constellation will consist of 1296 satellites by 2027 with long term plans to expand it to 12000 satellites.

CZ-6A DEB was lifted into orbit during the mission ‘Long March 6A | G60 Polar Group 01’, on board a Long March 6A space rocket.

The launch took place on Aug. 6, 2024, 6:42 a.m. from Launch Complex 9A.

For more information about the launch, click the button.

Launch to space Long March 6A | G60 Polar Group 01
Long March 6A | G60 Polar Group 01

Agency: N/A

Status: Launch Successful

Launch date: Aug. 6, 2024, 6:42 a.m. UTC

Rocket: Long March 6A

Launch pad: Launch Complex 9A

Location: Taiyuan Satellite Launch Center, People's Republic of China

...

Latest news about this satellite

News about space launch
Brightness of first Chinese broadband constellation satellites alarms astronomers

The first satellites of a Chinese broadband constellation are significantly brighter than those of Western systems, posing a new challenge for astronomers.

News about space launch
Chinese rocket stage breaks up into cloud of more than 700 pieces of space debris

HELSINKI — A Chinese Long March 6A rocket’s upper stage has fragmented into a cloud of over 700 pieces of space debris, adding to concerns about long-term orbital safety. China […]

News about space launch
China's Thousand Sails Megaconstellation Kicks Off with Dangerous Debris Field

China's Thousand Sails Megaconstellation Kicks Off with Dangerous Debris Field


Newsletter sign-up

Weekly statistics, charts and insights to help you stay on top of the space industry.